Regional Weather Roundup
Issued by NWS Jackson, KY

Home | Current Version | Previous Version | Graphics & Text | Print | Product List | Glossary On
Versions: 1 2 3 4 5 6 7 8 9 10 11 12 13 14 15 16 17 18 19 20 21 22 23 24 25 26 27 28 29 30 31 32 33 34 35 36 37 38 39 40 41 42 43 44 45 46 47 48 49 50
000
ASUS43 KJKL 121810
RWRJKL

EAST KENTUCKY HOURLY WEATHER ROUNDUP
NATIONAL WEATHER SERVICE JACKSON KY
200 PM EDT SAT JUL 12 2014

NOTE: "FAIR" INDICATES FEW OR NO CLOUDS BELOW 12,000 FEET WITH
NO SIGNIFICANT WEATHER AND/OR OBSTRUCTIONS TO VISIBILITY.

* THESE REPORTS ARE NOT UNDER NWS QUALITY CONTROL AND MAY NOT
  REPORT WEATHER SUCH AS PRECIPITATION AND FOG.

KYZ079-080-083-085-087-088-110-112-115-119-120-121900
...EASTERN KENTUCKY...

CITY           SKY/WX    TMP DP  RH WIND       PRES   REMARKS
JACKSON        MOSUNNY   88  51  28 VRB5      30.23S
6HR MIN TEMP:  68; 6HR MAX TEMP:  89;

LONDON         MOSUNNY   90  55  30 VRB3      30.22F
6HR MIN TEMP:  65; 6HR MAX TEMP:  91;

SOMERSET*      PTSUNNY   88  50  27 W6        30.22S
MONTICELLO*    MOSUNNY   91  60  35 CALM      30.22F HX  90
6HR MIN TEMP:  66; 6HR MAX TEMP:  91;

MIDDLESBORO*   MOSUNNY   88  63  43 S3        30.21F
6HR MIN TEMP:  64; 6HR MAX TEMP:  88;

HARLAN APT*    PTCLDY    88  54  31 MISG      30.23F
BIG SANDY*     CLEAR     87  61  40 W6        30.21S
6HR MIN TEMP:  70; 6HR MAX TEMP:  88;

MOREHEAD APT*    N/A     88  61  40 VRB7G14   30.22S
$$

KYZ035-036-041-042-044-050-067-078-099-121900
...CENTRAL KENTUCKY...

CITY           SKY/WX    TMP DP  RH WIND       PRES   REMARKS
MT STERLING*   MOSUNNY   88  64  45 W6        30.21S
FLEMING/MASON* MOSUNNY   88  65  46 W7        30.20F
DANVILLE*      MOSUNNY   88  63  42 W5        30.22R
RICHMOND*      MOSUNNY   90  57  33 W9        30.20S
LEXINGTON      PTSUNNY   89  62  40 W14       30.20S
6HR MIN TEMP:  69; 6HR MAX TEMP:  90;

FRANKFORT      CLOUDY    84  65  52 W3        30.19R
6HR MIN TEMP:  66; 6HR MAX TEMP:  87;

$$

KYZ091>093-OHZ055-061-077-WVZ005-015-034-035-042-121900
...SOUTHERN OHIO/WEST VIRGINIA...

CITY           SKY/WX    TMP DP  RH WIND       PRES   REMARKS
COVINGTON      CLOUDY    84  64  50 SW10      30.19S
COLUMBUS       PTSUNNY   86  59  39 SW8G17    30.16S
DAYTON         CLOUDY    85  67  54 W12       30.18F
WILMINGTON     MOSUNNY   82  59  45 W9        30.19S
HUNTINGTON     MOSUNNY   89  55  31 S8        30.17F
CHARLESTON     PTSUNNY   89  58  34 SW5       30.17F
PINEVILLE*     MOSUNNY   88  68  50 MISG      30.28F HX  91
BECKLEY        SUNNY     84  61  45 W7G18     30.27F
BLUEFIELD      PTSUNNY   85  60  42 MISG      30.29F
$$

VAZ002-007-008-TNZ017-027-036-066-071-121900
...SOUTHWEST VIRGINIA/EAST TENNESSEE...

CITY           SKY/WX    TMP DP  RH WIND       PRES   REMARKS
WISE*          MOSUNNY   82  54  36 SW5       30.30F
JONESVILLE*    CLEAR     86  66  51 NW3       30.24F
ABINGDON*      PTSUNNY   84  66  53 NW7       30.26F
BRISTOL        MOSUNNY   88  63  43 VRB7      30.22F
KNOXVILLE      MOSUNNY   86  69  56 SW5       30.19F HX  90
OAK RIDGE      MOSUNNY   88  67  49 VRB5      30.20F HX  91
CROSSVILLE     MOSUNNY   84  60  44 CALM      30.25F
NASHVILLE      PTSUNNY   92  63  38 CALM      30.17F HX  93
$$

...KEY TO REMARKS...
VSB - VISIBILITY IN MILES
WCI - WIND CHILL INDEX
HX  - HEAT INDEX

$$



USA.gov is the U.S. government's official web portal to all federal, state and local government web resources and services.